Weather History for KI16 - October, 2011

Change the Weather History Date:

Tuesday, October 25, 2011

  Actual Average (KBKW) Record (KBKW)
Temperature  
Mean Temperature 55 °F 51 °F  
Max Temperature 69 °F 61 °F 79 °F (1939)
Min Temperature 41 °F 41 °F 15 °F (1907)
Degree Days  
Heating Degree Days 10 14  
Month to date heating degree days 281  
Since 1 July heating degree days 415  
Cooling Degree Days 0 0  
Month to date cooling degree days 2  
Year to date cooling degree days 552  
Growing Degree Days 5 (Base 50)    
Moisture  
Dew Point 44 °F    
Average Humidity 85    
Maximum Humidity 100    
Minimum Humidity 37    
Precipitation  
Precipitation 0.00 in 0.08 in 1.66 in (1917)
Month to date precipitation 2.03  
Year to date precipitation 34.70  
Snow  
Snow 0.00 in - - ()
Month to date snowfall  
Since 1 September snowfall  
Snow Depth -    
Sea Level Pressure  
Sea Level Pressure 30.27 in    
Wind  
Wind Speed 0 mph (SW)    
Max Wind Speed 5 mph    
Max Gust Speed -    
Visibility 5 miles    
Events Fog    
T = Trace of Precipitation, MM = Missing Value Source: NWS Daily Summary

Daily Weather History Graph

Daily Weather History Graph

Search for Another Location

Airport or City:

Trip Planner

Search our weather history database for the weather conditions in past years. The results will help you decide how hot, cold, wet, or windy it might be!

Date:

Astronomy

Oct. 25, 2011 Rise Set
Actual Time 7:43 AM EDT 6:36 PM EDT
Civil Twilight 7:17 AM EDT 7:02 PM EDT
Nautical Twilight 6:46 AM EDT 7:33 PM EDT
Astronomical Twilight 6:16 AM EDT 8:03 PM EDT
Moon 6:15 AM EDT (10/25) 5:36 PM EDT (10/25)
Length of Visible Light 11h 45m
Length of Day
10h 52m
Waning Crescent, 2% of the Moon is Illuminated
Oct 25
Waning Crescent
Oct 26
New
Nov 2
First Quarter
Nov 10
Full
Nov 18
Last Quarter

Hourly Weather History & Observations

Time (EDT) Temp. Dew Point Humidity Pressure Visibility Wind Dir Wind Speed Gust Speed Precip Events Conditions
12:15 AM 42.8 °F 41.0 °F 93% 30.24 in 10.0 mi Calm Calm - N/A   Clear
12:35 AM 41.0 °F 41.0 °F 100% 30.24 in 10.0 mi Calm Calm - N/A   Clear
12:55 AM 42.8 °F 41.0 °F 93% 30.24 in 7.0 mi Calm Calm - N/A   Mostly Cloudy
1:15 AM 42.8 °F 42.8 °F 100% 30.24 in 0.5 mi Calm Calm - N/A Fog Fog
1:35 AM 42.8 °F 42.8 °F 100% 30.24 in 0.2 mi Calm Calm - N/A Fog Fog
1:55 AM 42.8 °F 42.8 °F 100% 30.24 in 0.5 mi Calm Calm - N/A Fog Fog
2:15 AM 42.8 °F 42.8 °F 100% 30.25 in 0.5 mi Calm Calm - N/A Fog Fog
2:35 AM 44.6 °F 44.6 °F 100% 30.25 in 0.5 mi Calm Calm - N/A Fog Fog
2:55 AM 44.6 °F 44.6 °F 100% 30.26 in 0.2 mi Calm Calm - N/A Fog Fog
3:15 AM 44.6 °F 44.6 °F 100% 30.26 in 0.2 mi Calm Calm - N/A Fog Fog
3:35 AM 44.6 °F 44.6 °F 100% 30.26 in 0.2 mi Calm Calm - N/A Fog Fog
3:55 AM 44.6 °F 44.6 °F 100% 30.27 in 0.2 mi Calm Calm - N/A Fog Fog
4:15 AM 44.6 °F 44.6 °F 100% 30.28 in 0.2 mi Calm Calm - N/A Fog Fog
4:35 AM 42.8 °F 42.8 °F 100% 30.28 in 0.2 mi Calm Calm - N/A Fog Fog
4:55 AM 42.8 °F 42.8 °F 100% 30.29 in 0.2 mi Calm Calm - N/A Fog Fog
5:15 AM 44.6 °F 44.6 °F 100% 30.29 in 0.2 mi Calm Calm - N/A Fog Fog
5:35 AM 42.8 °F 42.8 °F 100% 30.30 in 0.2 mi Calm Calm - N/A Fog Fog
5:55 AM 42.8 °F 42.8 °F 100% 30.30 in 0.2 mi Calm Calm - N/A Fog Fog
6:15 AM 42.8 °F 42.8 °F 100% 30.30 in 0.2 mi Calm Calm - N/A Fog Fog
6:35 AM 42.8 °F 42.8 °F 100% 30.31 in 0.2 mi Calm Calm - N/A Fog Fog
6:55 AM 42.8 °F 42.8 °F 100% 30.31 in 0.2 mi Calm Calm - N/A Fog Fog
7:15 AM 42.8 °F 42.8 °F 100% 30.32 in 0.2 mi Calm Calm - N/A Fog Fog
7:35 AM 42.8 °F 42.8 °F 100% 30.32 in 0.2 mi Calm Calm - N/A Fog Fog
7:55 AM 42.8 °F 42.8 °F 100% 30.32 in 0.2 mi Calm Calm - N/A Fog Fog
8:15 AM 42.8 °F 42.8 °F 100% 30.33 in 0.2 mi Calm Calm - N/A Fog Fog
8:35 AM 44.6 °F 44.6 °F 100% 30.34 in 0.2 mi Calm Calm - N/A Fog Fog
8:55 AM 44.6 °F 44.6 °F 100% 30.35 in 0.2 mi Calm Calm - N/A Fog Fog
9:15 AM 42.8 °F 42.8 °F 100% 30.35 in 0.2 mi Calm Calm - N/A Fog Fog
9:35 AM 42.8 °F 42.8 °F 100% 30.35 in 0.2 mi Calm Calm - N/A Fog Fog
9:55 AM 44.6 °F 44.6 °F 100% 30.36 in 0.2 mi Calm Calm - N/A Fog Fog
10:15 AM 44.6 °F 44.6 °F 100% 30.35 in 0.2 mi Calm Calm - N/A Fog Fog
10:35 AM 44.6 °F 44.6 °F 100% 30.35 in 0.2 mi Calm Calm - N/A Fog Fog
10:55 AM 44.6 °F 44.6 °F 100% 30.35 in 0.2 mi Calm Calm - N/A Fog Fog
11:15 AM 44.6 °F 44.6 °F 100% 30.35 in 1.2 mi Calm Calm - N/A   Overcast
11:35 AM 46.4 °F 46.4 °F 100% 30.35 in 7.0 mi Calm Calm - N/A   Overcast
11:55 AM 50.0 °F 50.0 °F 100% 30.34 in 10.0 mi Calm Calm - N/A   Overcast
12:15 PM 51.8 °F 51.8 °F 100% 30.33 in 10.0 mi Calm Calm - N/A   Scattered Clouds
12:35 PM 53.6 °F 51.8 °F 94% 30.32 in 10.0 mi Calm Calm - N/A   Clear
12:55 PM 57.2 °F 51.8 °F 82% 30.30 in 10.0 mi Calm Calm - N/A   Clear
1:15 PM 60.8 °F 46.4 °F 59% 30.28 in 10.0 mi SE 3.5 mph - N/A   Clear
1:35 PM 62.6 °F 41.0 °F 45% 30.27 in 10.0 mi Calm Calm - N/A   Clear
1:55 PM 64.4 °F 42.8 °F 45% 30.25 in 10.0 mi Calm Calm - N/A   Clear
2:15 PM 64.4 °F 42.8 °F 45% 30.25 in 10.0 mi Calm Calm - N/A   Clear
2:35 PM 66.2 °F 41.0 °F 40% 30.23 in 10.0 mi Calm Calm - N/A   Clear
2:55 PM 68.0 °F 41.0 °F 37% 30.22 in 10.0 mi WNW 4.6 mph - N/A   Clear
3:15 PM 68.0 °F 41.0 °F 37% 30.22 in 10.0 mi Calm Calm - N/A   Clear
3:35 PM 68.0 °F 41.0 °F 37% 30.21 in 10.0 mi Calm Calm - N/A   Clear
3:55 PM 69.8 °F 42.8 °F 38% 30.21 in 10.0 mi Calm Calm - N/A   Clear
4:35 PM 66.2 °F 46.4 °F 49% 30.20 in 10.0 mi Calm Calm - N/A   Clear
4:55 PM 62.6 °F 46.4 °F 55% 30.19 in 10.0 mi Calm Calm - N/A   Clear
5:15 PM 59.0 °F 44.6 °F 59% 30.18 in 10.0 mi Calm Calm - N/A   Clear
5:35 PM 59.0 °F 46.4 °F 63% 30.17 in 10.0 mi Calm Calm - N/A   Clear
5:55 PM 55.4 °F 46.4 °F 72% 30.17 in 10.0 mi Calm Calm - N/A   Clear
6:15 PM 55.4 °F 46.4 °F 72% 30.17 in 10.0 mi Calm Calm - N/A   Clear
6:35 PM 53.6 °F 46.4 °F 77% 30.17 in 10.0 mi Calm Calm - N/A   Clear
6:55 PM 53.6 °F 44.6 °F 72% 30.16 in 10.0 mi Calm Calm - N/A   Clear
7:35 PM 50.0 °F 44.6 °F 82% 30.16 in 10.0 mi Calm Calm - N/A   Clear
7:55 PM 50.0 °F 44.6 °F 82% 30.16 in 10.0 mi Calm Calm - N/A   Clear
8:15 PM 48.2 °F 44.6 °F 87% 30.16 in 10.0 mi Calm Calm - N/A   Clear
8:35 PM 46.4 °F 44.6 °F 93% 30.16 in 10.0 mi Calm Calm - N/A   Clear
8:55 PM 46.4 °F 44.6 °F 93% 30.15 in 10.0 mi Calm Calm - N/A   Clear
9:15 PM 44.6 °F 42.8 °F 93% 30.15 in 10.0 mi Calm Calm - N/A   Clear
9:35 PM 44.6 °F 42.8 °F 93% 30.15 in 10.0 mi Calm Calm - N/A   Clear
9:55 PM 44.6 °F 42.8 °F 93% 30.15 in 10.0 mi Calm Calm - N/A   Clear
10:15 PM 44.6 °F 42.8 °F 93% 30.15 in 10.0 mi Calm Calm - N/A   Clear
10:35 PM 44.6 °F 42.8 °F 93% 30.15 in 10.0 mi Calm Calm - N/A   Clear
10:55 PM 44.6 °F 42.8 °F 93% 30.15 in 10.0 mi Calm Calm - N/A   Clear
11:15 PM 44.6 °F 42.8 °F 93% 30.15 in 10.0 mi Calm Calm - N/A   Clear
11:35 PM 44.6 °F 42.8 °F 93% 30.14 in 10.0 mi Calm Calm - N/A   Clear
11:55 PM 44.6 °F 42.8 °F 93% 30.14 in 10.0 mi Calm Calm - N/A   Clear